• In Netherlands
  • List of Countries
  • For 7 days
  • Water Temperature
  • Satellite Maps
  • Weather Map
  • Weather Widgets
  • user-avatar
    Login

    Hourly Weather Sarafovo

    Today, 23 September, Saturday

    Time Temperature Precipitation Wind Pressure Humidity
    00:00 +14°C° 0 mm 5 mps 759 mmHg 68%
    01:00 +13°C° 0 mm 4 mps 760 mmHg 71%
    02:00 +12°C° 0 mm 4 mps 760 mmHg 74%
    03:00 +12°C° 0 mm 4 mps 760 mmHg 75%
    04:00 +12°C° 0 mm 4 mps 760 mmHg 77%
    05:00 +11°C° 0 mm 4 mps 760 mmHg 78%
    06:00 +13°C° 0 mm 4 mps 760 mmHg 72%
    07:00 +14°C° 0 mm 4 mps 760 mmHg 67%
    08:00 +15°C° 0 mm 5 mps 761 mmHg 61%
    09:00 +18°C° 0 mm 4 mps 761 mmHg 54%
    10:00 +20°C° 0 mm 4 mps 761 mmHg 48%
    11:00 +22°C° 0 mm 4 mps 761 mmHg 41%
    12:00 +23°C° 0 mm 4 mps 761 mmHg 39%
    13:00 +24°C° 0 mm 3 mps 761 mmHg 37%
    14:00 +25°C° 0 mm 3 mps 761 mmHg 34%
    15:00 +24°C° 0 mm 3 mps 761 mmHg 35%
    16:00 +24°C° 0 mm 2 mps 761 mmHg 36%
    17:00 +23°C° 0 mm 2 mps 761 mmHg 37%
    18:00 +21°C° 0 mm 2 mps 761 mmHg 41%
    19:00 +19°C° 0 mm 2 mps 761 mmHg 45%
    20:00 +18°C° 0 mm 2 mps 761 mmHg 49%
    21:00 +17°C° 0 mm 2 mps 761 mmHg 51%
    22:00 +17°C° 0 mm 2 mps 762 mmHg 52%
    23:00 +16°C° 0 mm 2 mps 762 mmHg 54%

    Tomorrow, 24 September, Sunday

    Time Temperature Precipitation Wind Pressure Humidity
    00:00 +16°C° 0 mm 2 mps 762 mmHg 55%
    01:00 +15°C° 0 mm 2 mps 761 mmHg 55%
    02:00 +15°C° 0 mm 1 mps 761 mmHg 56%
    03:00 +15°C° 0 mm 1 mps 761 mmHg 57%
    04:00 +15°C° 0 mm 1 mps 761 mmHg 58%
    05:00 +14°C° 0 mm 1 mps 762 mmHg 59%
    06:00 +16°C° 0 mm 1 mps 762 mmHg 54%
    07:00 +19°C° 0 mm 1 mps 762 mmHg 50%
    08:00 +20°C° 0 mm 1 mps 762 mmHg 45%
    09:00 +22°C° 0 mm 1 mps 762 mmHg 40%
    10:00 +24°C° 0 mm 1 mps 762 mmHg 35%
    11:00 +27°C° 0 mm 1 mps 762 mmHg 30%
    12:00 +27°C° 0 mm 1 mps 762 mmHg 28%
    13:00 +28°C° 0 mm 2 mps 762 mmHg 27%
    14:00 +28°C° 0 mm 2 mps 761 mmHg 26%
    15:00 +28°C° 0 mm 3 mps 761 mmHg 27%
    16:00 +27°C° 0 mm 3 mps 761 mmHg 28%
    17:00 +27°C° 0 mm 3 mps 761 mmHg 30%
    18:00 +24°C° 0 mm 3 mps 761 mmHg 38%
    19:00 +21°C° 0 mm 3 mps 762 mmHg 46%
    20:00 +19°C° 0 mm 3 mps 762 mmHg 54%
    21:00 +18°C° 0 mm 2 mps 762 mmHg 58%
    22:00 +18°C° 0 mm 2 mps 762 mmHg 62%
    23:00 +18°C° 0 mm 1 mps 762 mmHg 66%

    Day after tomorrow, 25 September, Monday

    Time Temperature Precipitation Wind Pressure Humidity
    00:00 +18°C° 0 mm 1 mps 762 mmHg 69%
    01:00 +18°C° 0 mm 1 mps 762 mmHg 71%
    02:00 +16°C° 0 mm 1 mps 762 mmHg 74%
    03:00 +16°C° 0 mm 1 mps 762 mmHg 75%
    04:00 +16°C° 0 mm 1 mps 761 mmHg 76%
    05:00 +16°C° 0 mm 2 mps 761 mmHg 77%
    06:00 +18°C° 0 mm 2 mps 761 mmHg 73%
    07:00 +19°C° 0 mm 3 mps 762 mmHg 68%
    08:00 +20°C° 0 mm 3 mps 762 mmHg 64%
    09:00 +22°C° 0 mm 4 mps 762 mmHg 57%
    10:00 +23°C° 0 mm 5 mps 762 mmHg 51%
    11:00 +26°C° 0 mm 6 mps 762 mmHg 44%
    12:00 +26°C° 0 mm 6 mps 761 mmHg 43%
    13:00 +27°C° 0 mm 6 mps 761 mmHg 42%
    14:00 +27°C° 0 mm 7 mps 761 mmHg 40%
    15:00 +26°C° 0 mm 7 mps 761 mmHg 44%
    16:00 +24°C° 0 mm 7 mps 761 mmHg 47%
    17:00 +23°C° 0 mm 7 mps 761 mmHg 51%
    18:00 +22°C° 0 mm 6 mps 761 mmHg 59%
    19:00 +20°C° 0 mm 6 mps 761 mmHg 68%
    20:00 +19°C° 0 mm 5 mps 761 mmHg 76%
    21:00 +19°C° 0 mm 5 mps 761 mmHg 80%
    22:00 +17°C° 0 mm 5 mps 761 mmHg 83%
    23:00 +18°C° 0 mm 4 mps 761 mmHg 87%

    26 September, Tuesday

    Time Temperature Precipitation Wind Pressure Humidity
    00:00 +18°C° 0 mm 4 mps 760 mmHg 89%
    01:00 +17°C° 0 mm 4 mps 760 mmHg 90%
    02:00 +17°C° 0 mm 4 mps 760 mmHg 92%
    03:00 +15°C° 0 mm 4 mps 760 mmHg 92%
    04:00 +15°C° 0 mm 4 mps 760 mmHg 92%
    05:00 +15°C° 0 mm 4 mps 760 mmHg 92%
    06:00 +17°C° 0 mm 4 mps 760 mmHg 87%
    07:00 +18°C° 0 mm 4 mps 760 mmHg 83%
    08:00 +18°C° 0 mm 4 mps 760 mmHg 78%
    09:00 +21°C° 0.1 mm 5 mps 760 mmHg 71%
    10:00 +23°C° 0.1 mm 5 mps 760 mmHg 63%
    11:00 +26°C° 0.1 mm 5 mps 760 mmHg 56%
    12:00 +26°C° 0.8 mm 5 mps 760 mmHg 56%
    13:00 +26°C° 0.8 mm 5 mps 760 mmHg 56%
    14:00 +26°C° 0.8 mm 6 mps 759 mmHg 56%
    15:00 +24°C° 1.8 mm 6 mps 760 mmHg 62%
    16:00 +23°C° 1.8 mm 6 mps 760 mmHg 67%
    17:00 +22°C° 1.8 mm 6 mps 760 mmHg 73%
    18:00 +21°C° 0.2 mm 6 mps 760 mmHg 76%
    19:00 +20°C° 0.2 mm 6 mps 761 mmHg 79%
    20:00 +19°C° 0.2 mm 6 mps 761 mmHg 82%
    21:00 +19°C° 0 mm 5 mps 761 mmHg 83%
    22:00 +17°C° 0 mm 5 mps 761 mmHg 83%
    23:00 +17°C° 0 mm 5 mps 761 mmHg 84%

    27 September, Wednesday

    Time Temperature Precipitation Wind Pressure Humidity
    00:00 +16°C° 0 mm 5 mps 761 mmHg 83%
    01:00 +17°C° 0 mm 4 mps 761 mmHg 83%
    02:00 +15°C° 0 mm 4 mps 761 mmHg 83%
    03:00 +15°C° 0 mm 4 mps 761 mmHg 82%
    04:00 +15°C° 0 mm 4 mps 761 mmHg 81%
    05:00 +14°C° 0 mm 5 mps 761 mmHg 81%
    06:00 +15°C° 0 mm 5 mps 762 mmHg 77%
    07:00 +16°C° 0 mm 5 mps 762 mmHg 73%
    08:00 +16°C° 0 mm 5 mps 762 mmHg 69%
    09:00 +19°C° 0.1 mm 5 mps 763 mmHg 65%
    10:00 +21°C° 0.1 mm 5 mps 763 mmHg 61%
    11:00 +22°C° 0.1 mm 5 mps 763 mmHg 57%
    12:00 +22°C° 0.1 mm 6 mps 763 mmHg 57%
    13:00 +23°C° 0.1 mm 6 mps 763 mmHg 58%
    14:00 +23°C° 0.1 mm 7 mps 763 mmHg 58%
    15:00 +22°C° 0 mm 7 mps 763 mmHg 60%
    16:00 +22°C° 0 mm 7 mps 763 mmHg 61%
    17:00 +21°C° 0 mm 7 mps 763 mmHg 63%
    18:00 +20°C° 0 mm 7 mps 764 mmHg 67%
    19:00 +19°C° 0 mm 6 mps 764 mmHg 72%
    20:00 +17°C° 0 mm 6 mps 764 mmHg 76%
    21:00 +16°C° 0 mm 6 mps 764 mmHg 77%
    22:00 +16°C° 0 mm 6 mps 764 mmHg 79%
    23:00 +16°C° 0 mm 6 mps 764 mmHg 81%

    28 September, Thursday

    Time Temperature Precipitation Wind Pressure Humidity
    00:00 +16°C° 0 mm 6 mps 764 mmHg 81%
    01:00 +15°C° 0 mm 6 mps 764 mmHg 82%
    02:00 +15°C° 0 mm 6 mps 764 mmHg 82%
    03:00 +15°C° 0 mm 6 mps 764 mmHg 82%
    04:00 +14°C° 0 mm 6 mps 764 mmHg 82%
    05:00 +14°C° 0 mm 6 mps 764 mmHg 82%
    06:00 +15°C° 0 mm 6 mps 764 mmHg 77%
    07:00 +16°C° 0 mm 6 mps 765 mmHg 72%
    08:00 +16°C° 0 mm 7 mps 765 mmHg 68%
    09:00 +18°C° 0.1 mm 7 mps 765 mmHg 64%
    10:00 +20°C° 0.1 mm 8 mps 765 mmHg 61%
    11:00 +21°C° 0.1 mm 8 mps 765 mmHg 57%
    12:00 +21°C° 0.1 mm 8 mps 765 mmHg 58%
    13:00 +21°C° 0.1 mm 8 mps 765 mmHg 58%
    14:00 +21°C° 0.1 mm 9 mps 765 mmHg 59%
    15:00 +19°C° 0.1 mm 9 mps 765 mmHg 60%
    16:00 +18°C° 0.1 mm 8 mps 765 mmHg 62%
    17:00 +18°C° 0.1 mm 8 mps 765 mmHg 63%
    18:00 +17°C° 0.1 mm 8 mps 765 mmHg 67%
    19:00 +16°C° 0.1 mm 7 mps 765 mmHg 72%
    20:00 +15°C° 0.1 mm 7 mps 765 mmHg 76%
    21:00 +14°C° 0.1 mm 7 mps 765 mmHg 78%
    22:00 +14°C° 0.1 mm 6 mps 765 mmHg 80%
    23:00 +13°C° 0.1 mm 6 mps 765 mmHg 81%
    Show more